Winnemucca, NV

7:05 AM PST on February 27, 2017 (GMT -0800)
Winnemucca Municipal

Weather History for KWMC - March, 2013

Change the Weather History Date:

Wednesday, March 20, 2013

  Actual Average Record
Temperature  
Mean Temperature 51 °F 42 °F  
Max Temperature 65 °F 57 °F 79 °F (2004)
Min Temperature 36 °F 27 °F 0 °F (1987)
Degree Days  
Heating Degree Days 14 23  
Month to date heating degree days 455 494  
Since 1 July heating degree days 5221 5083  
Cooling Degree Days 0 0  
Month to date cooling degree days 0 0  
Year to date cooling degree days 0 0  
Growing Degree Days 4 (Base 50)    
Moisture  
Dew Point 33 °F    
Average Humidity 60    
Maximum Humidity 92    
Minimum Humidity 28    
Precipitation  
Precipitation 0.05 in 0.02 in 0.66 in (1946)
Month to date precipitation 0.21 0.52  
Year to date precipitation 0.67 2.05  
Snow  
Snow 0.00 in 0.10 in 4.50 in (1946)
Month to date snowfall T 2.2  
Since 1 July snowfall 21.9 18.2  
Snow Depth 0.00 in    
Sea Level Pressure  
Sea Level Pressure 29.85 in    
Wind  
Wind Speed 15 mph (SW)    
Max Wind Speed 31 mph    
Max Gust Speed 40 mph    
Visibility 10 miles    
Events Rain    
T = Trace of Precipitation, MM = Missing Value Source: NWS Daily Summary

Daily Weather History Graph

Daily Weather History Graph

Search for Another Location

Airport or City:

Trip Planner

Search our weather history database for the weather conditions in past years. The results will help you decide how hot, cold, wet, or windy it might be!

Date:

Astronomy

Mar. 20, 2013 Rise Set
Actual Time 6:54 AM PDT 7:03 PM PDT
Civil Twilight 6:26 AM PDT 7:31 PM PDT
Nautical Twilight 5:54 AM PDT 8:03 PM PDT
Astronomical Twilight 5:22 AM PDT 8:36 PM PDT
Moon 12:40 PM PDT (3/20) 2:39 AM PDT (3/20)
Length of Visible Light 13h 04m
Length of Day
12h 09m
First Quarter, 60% of the Moon is Illuminated
Mar 20
First Quarter
Mar 27
Full
Apr 2
Last Quarter
Apr 10
New
Apr 18
First Quarter

Hourly Weather History & Observations

Time (PDT) Temp. Windchill Dew Point Humidity Pressure Visibility Wind Dir Wind Speed Gust Speed Precip Events Conditions
12:56 AM 46.9 °F - 39.0 °F 74% 29.92 in 10.0 mi West 3.5 mph - N/A   Overcast
1:56 AM 46.9 °F - 39.9 °F 77% 29.91 in 10.0 mi SW 10.4 mph - 0.00 in Rain Light Rain
2:56 AM 46.0 °F 42.5 °F 41.0 °F 83% 29.91 in 10.0 mi SW 6.9 mph - 0.01 in Rain Light Rain
3:56 AM 45.0 °F 39.3 °F 42.1 °F 90% 29.88 in 10.0 mi SSE 11.5 mph - 0.02 in Rain Light Rain
4:56 AM 45.0 °F 40.1 °F 42.1 °F 90% 29.87 in 10.0 mi South 9.2 mph - 0.00 in   Mostly Cloudy
5:56 AM 46.0 °F 43.9 °F 39.9 °F 79% 29.89 in 10.0 mi SW 4.6 mph - N/A   Overcast
6:56 AM 46.0 °F - 39.0 °F 76% 29.89 in 10.0 mi Calm Calm - 0.01 in Rain Light Rain
7:56 AM 48.0 °F - 39.0 °F 71% 29.91 in 10.0 mi SSE 3.5 mph - 0.00 in   Overcast
8:56 AM 50.0 °F - 37.9 °F 63% 29.90 in 10.0 mi SSW 5.8 mph - N/A   Overcast
9:56 AM 52.0 °F - 39.0 °F 61% 29.89 in 10.0 mi SSE 10.4 mph - N/A   Overcast
10:56 AM 55.0 °F - 34.0 °F 45% 29.87 in 10.0 mi SSE 9.2 mph 19.6 mph N/A   Overcast
11:56 AM 57.9 °F - 34.0 °F 41% 29.86 in 10.0 mi SW 24.2 mph 39.1 mph N/A   Partly Cloudy
12:56 PM 57.0 °F - 32.0 °F 39% 29.86 in 10.0 mi SW 20.7 mph 27.6 mph N/A   Mostly Cloudy
1:56 PM 62.1 °F - 33.1 °F 34% 29.80 in 10.0 mi SW 24.2 mph 31.1 mph N/A   Mostly Cloudy
2:56 PM 64.0 °F - 30.0 °F 28% 29.76 in 10.0 mi WSW 23.0 mph 36.8 mph N/A   Clear
3:56 PM 60.1 °F - 28.0 °F 30% 29.77 in 10.0 mi SW 29.9 mph 35.7 mph N/A   Scattered Clouds
4:56 PM 59.0 °F - 28.9 °F 32% 29.77 in 10.0 mi WSW 18.4 mph 27.6 mph N/A   Partly Cloudy
5:56 PM 55.9 °F - 28.0 °F 34% 29.78 in 10.0 mi WSW 19.6 mph 28.8 mph N/A   Partly Cloudy
6:56 PM 53.1 °F - 21.9 °F 30% 29.80 in 5.0 mi West 26.5 mph 35.7 mph N/A   Haze
7:56 PM 51.1 °F - 24.1 °F 35% 29.84 in 10.0 mi WSW 16.1 mph 25.3 mph N/A   Clear
8:56 PM 50.0 °F - 26.1 °F 39% 29.85 in 10.0 mi WSW 15.0 mph - N/A   Mostly Cloudy
9:56 PM 50.0 °F - 27.0 °F 41% 29.86 in 10.0 mi WSW 15.0 mph 25.3 mph N/A   Overcast
10:56 PM 48.9 °F - 28.0 °F 44% 29.85 in 10.0 mi SW 12.7 mph 18.4 mph N/A   Overcast
11:56 PM 48.0 °F - 30.0 °F 50% 29.88 in 10.0 mi WNW 24.2 mph 32.2 mph N/A   Overcast